Banja Luka current weather conditions

sailwx.info

Wind from 270 at 1 knots

Air temperature 7.0° C
Visibility: greater than 5.4 NM
Dewpoint 4.0° C

Last reported at 2019-Dec-14 14:30 UTC.
Time now 2019-Dec-14 15:53 UTC

Location: N 44°56' E 017°18'.
View on Google Maps.

See reports from other nearby stations

  
Tides and Currents Weather Stations Pressure Air Temp Water Temp Dewpoint Dewpoint Depression Visibility Wind Speed Wind Dir Waves Ship Positions
date/time (UTC)wind fromknots sea level pressurealtimeterstation pressurevisibilityair tempwater tempwave heightnotes
2019-Dec-14 14:30 270 1 5.4 7.0
2019-Dec-14 14:00 250 2 5.4 7.0
2019-Dec-14 13:30 260 6 5.4 7.0
2019-Dec-14 13:00 250 6 5.4 7.0
2019-Dec-14 12:30 230 6 5.4 7.0
2019-Dec-14 12:00 250 6 5.4 6.0
2019-Dec-14 11:30 250 7 5.4 5.0
2019-Dec-14 11:00 230 6 5.4 5.0
2019-Dec-14 10:30 190 4 5.4 6.0
2019-Dec-14 10:00 260 6 5.4 5.0
2019-Dec-14 09:30 260 7 5.4 5.0
2019-Dec-14 09:00 260 6 5.4 5.0
2019-Dec-14 08:30 250 6 5.4 4.0
2019-Dec-14 08:00 240 6 5.4 4.0
2019-Dec-14 07:30 260 8 5.4 4.0
2019-Dec-14 07:00 200 6 5.4 4.0
2019-Dec-14 06:30 230 2 5.4 4.0 Light drizzle.
2019-Dec-14 06:00 270 4 3.2 4.0 Light drizzle.
2019-Dec-14 05:30 290 6 5.4 4.0 Light drizzle.
2019-Dec-14 05:00 290 7 5.4 4.0 Light drizzle.
2019-Dec-14 04:30 310 8 5.4 4.0
2019-Dec-14 04:00 310 9 5.4 4.0
2019-Dec-14 03:30 310 9 5.4 4.0 Light drizzle.
2019-Dec-14 03:00 320 13 5.4 4.0 Light drizzle.
2019-Dec-14 02:30 320 13 5.4 5.0 Light drizzle.
2019-Dec-14 02:00 330 13 5.4 5.0
2019-Dec-14 01:30 320 9 5.4 5.0
2019-Dec-14 01:00 330 9 5.4 5.0 Light rain.
2019-Dec-14 00:30 330 8 3.8 6.0 Rain.
2019-Dec-14 00:00 330 9 4.3 5.0 Rain.
2019-Dec-13 23:30 330 9 5.4 5.0 Light rain.
2019-Dec-13 23:00 320 8 5.4 5.0
2019-Dec-13 22:30 320 7 3.8 5.0 Light rain.
2019-Dec-13 22:00 330 5 2.7 5.0 Rain. Mist.
2019-Dec-13 21:30 300 6 2.2 4.0 Rain. Mist.
2019-Dec-13 21:00 320 6 3.2 4.0
2019-Dec-13 20:30 320 6 2.7 4.0 Mist.
2019-Dec-13 20:00 320 5 2.7 4.0 Mist.
2019-Dec-13 19:30 320 6 2.2 3.0 Mist.
2019-Dec-13 19:00 330 4 2.2 3.0 Light rain. Mist.
2019-Dec-13 18:30 310 5 2.2 3.0 Mist.
2019-Dec-13 18:00 330 4 1.6 2.0 Mist.
2019-Dec-13 17:30 320 4 1.1 2.0 Mist.
2019-Dec-13 17:00 320 4 0.8 2.0 Mist.
2019-Dec-13 16:30 300 2 1.1 2.0 Mist.
2019-Dec-13 16:00 300 1 1.1 3.0 Mist.
2019-Dec-13 15:30 310 1 1.1 3.0 Mist.
2019-Dec-13 15:00 310 4 1.3 3.0 Mist.
2019-Dec-13 14:30 030 2 1.3 3.0 Mist.
2019-Dec-13 14:00 320 1 1.3 2.0 Mist.
2019-Dec-13 13:30 160 4 1.1 2.0 Mist.
2019-Dec-13 13:00 170 1 1.1 2.0 Mist.
2019-Dec-13 12:30 0.8 1.0 Mist.
2019-Dec-13 12:00 050 1 1.3 1.0 Mist.
2019-Dec-13 11:30 130 2 1.1-0.0 Mist.
2019-Dec-13 11:00 140 1 1.0-0.0 Mist.
2019-Dec-13 10:30 140 2 0.2-0.0 Fog.
2019-Dec-13 10:00 180 4 0.2-0.0 Fog.
2019-Dec-13 09:30 140 1 0.2-0.0 Fog.
2019-Dec-13 09:00 150 1 0.1-1.0 Fog.
2019-Dec-13 08:30 120 2 0.1-1.0 Fog.
2019-Dec-13 08:00 140 1 0.1-1.0 Fog.
2019-Dec-13 07:30 110 2 0.1-1.0 Fog.
2019-Dec-13 07:00 100 1 0.1-0.0 Fog.
2019-Dec-13 06:30 140 2 0.1-0.0 Fog.
2019-Dec-13 06:00 170 2 0.3-0.0 Fog.
2019-Dec-13 05:30 180 4 0.3-0.0 Fog.
2019-Dec-13 05:00 190 4 0.4-0.0 Fog.
2019-Dec-13 04:30 160 1 0.6-0.0 Mist.
2019-Dec-13 04:00 120 1 0.6-0.0 Mist.
2019-Dec-13 03:30 100 1 0.6-0.0 Mist.
2019-Dec-13 03:00 170 1 0.6-0.0 Mist.
2019-Dec-13 02:30 180 1 0.4-0.0 Fog.
2019-Dec-13 02:00 130 1 0.3-0.0 Fog.
2019-Dec-13 01:30 140 1 0.4-0.0 Fog.
2019-Dec-13 01:00 170 1 0.4-0.0 Fog.
2019-Dec-13 00:30 130 1 0.4-0.0 Fog.
2019-Dec-13 00:00 0.4-0.0 Fog.
2019-Dec-12 23:30 0.4-0.0 Light snow. Fog.
2019-Dec-12 23:00 0.4-0.0 Light snow. Fog.
2019-Dec-12 22:30 0.4-0.0 Snow. Fog.
2019-Dec-12 22:00 0.4-0.0 Snow. Fog.
2019-Dec-12 21:30 170 1 0.4-0.0 Snow. Fog.
2019-Dec-12 21:00 130 1 0.4-0.0 Snow. Fog.
2019-Dec-12 20:30 0.4-0.0 Snow. Fog.
2019-Dec-12 20:00 0.4-0.0 Snow. Fog.
2019-Dec-12 19:30 330 1 0.8-0.0 Snow. Mist.
2019-Dec-12 19:00 360 1 1.1-0.0 Snow. Mist.
2019-Dec-12 18:30 020 1 1.3-0.0 Snow. Mist.
2019-Dec-12 18:00 1.3 1.0 Snow. Mist.
2019-Dec-12 17:30 1.3 1.0 Snow. Mist.
2019-Dec-12 17:00 2.2 1.0 Light snow. Mist.
2019-Dec-12 16:30 360 1 2.2 1.0 Light snow. Mist.
2019-Dec-12 16:00 350 2 2.2 1.0 Light snow. Mist.
2019-Dec-12 15:30 340 4 1.6 1.0 Light snow. Mist.
2019-Dec-12 15:00 1.6 1.0 Light snow. Mist.